Tracking 28926 objects as of 23-May-2024
HD Live streaming from Space Station
objects crossing your sky now

STARLINK-3354

Track STARLINK-3354 now!
10-day predictions
STARLINK-3354 is classified as:


NORAD ID: 51146
Int'l Code: 2022-005AU
Perigee: 546.5 km
Apogee: 547.2 km
Inclination: 53.2 °
Period: 95.4 minutes
Semi major axis: 6917 km
RCS: Unknown
Launch date: January 19, 2022
Source: United States (US)
Launch site: AIR FORCE EASTERN TEST RANGE (AFETR)
Your satellite tracking list
Your tracking list is empty




NASA's NSSDC Master Catalog

Two Line Element Set (TLE):
1 51146U 22005AU  24144.00333864  .00017954  00000-0  11429-2 0  9993
2 51146  53.2173   2.6227 0000563 107.5413 252.5641 15.08850930129741
Source of the keplerian elements: AFSPC